Weather History for Frankfurt / M-Flughafen, Germany

Change the Weather History Date:

Saturday, July 6, 2013

  Actual Average Record
Temperature  
Mean Temperature 70 °F -  
Max Temperature 80 °F 75 °F - ()
Min Temperature 61 °F 56 °F - ()
Cooling Degree Days 6    
Growing Degree Days 20 (Base 50)    
Moisture  
Dew Point 58 °F    
Average Humidity 61    
Maximum Humidity 88    
Minimum Humidity 32    
Precipitation  
Precipitation 0.00 in - - ()
Sea Level Pressure  
Sea Level Pressure 30.37 in    
Wind  
Wind Speed 8 mph ()    
Max Wind Speed 13 mph    
Max Gust Speed -    
Visibility 9.6 miles    
Events      
T = Trace of Precipitation, MM = Missing Value Source: Averaged Metar Reports

Daily Weather History Graph

Daily Weather History Graph

Search for Another Location

Airport:

Trip Planner

Search our weather history database for the weather conditions in past years. The results will help you decide how hot, cold, wet, or windy it might be!

Date:

Astronomy

Jul. 06, 2013 Rise Set
Actual Time 5:24 AM CEST 9:36 PM CEST
Civil Twilight 4:40 AM CEST 10:19 PM CEST
Nautical Twilight 3:37 AM CEST 11:22 PM CEST
Astronomical Twilight 2:02 AM CEST 12:58 AM CEST
Moon 4:02 AM CEST (7/6) 7:59 PM CEST (7/6)
Length of Visible Light 17h 39m
Length of Day
16h 12m
Waning Crescent, 3% of the Moon is Illuminated
Jul 6
Waning Crescent
Jul 8
New
Jul 16
First Quarter
Jul 22
Full
Jul 29
Last Quarter

Hourly Weather History & Observations

Time (CEST) Temp. Heat Index Dew Point Humidity Pressure Visibility Wind Dir Wind Speed Gust Speed Precip Events Conditions
12:00 AM 66 °F - 57 °F 66% 30.39 in 25 mi North 4.5 mph - -   Clear
12:20 AM 66.2 °F - 57.2 °F 73% 30.39 in - North 8.1 mph - N/A   Clear
12:50 AM 66.2 °F - 59.0 °F 78% 30.39 in - NNE 8.1 mph - N/A   Clear
1:00 AM 65 °F - 58 °F 71% 30.40 in 25 mi NNE 6.7 mph - -  
1:20 AM 64.4 °F - 57.2 °F 77% 30.39 in - NNE 10.4 mph - N/A   Clear
1:50 AM 64.4 °F - 59.0 °F 83% 30.39 in - NNE 10.4 mph - N/A   Clear
2:00 AM 64 °F - 58 °F 75% 30.40 in 25 mi NNE 4.5 mph - -   Clear
2:20 AM 62.6 °F - 57.2 °F 82% 30.39 in - NNE 9.2 mph - N/A   Clear
2:50 AM 62.6 °F - 59.0 °F 88% 30.39 in - NNE 9.2 mph - N/A   Clear
3:00 AM 62 °F - 58 °F 81% 30.40 in 25 mi NNE 4.5 mph - -   Scattered Clouds
3:20 AM 62.6 °F - 57.2 °F 82% 30.39 in - NNE 9.2 mph - N/A   Clear
3:50 AM 62.6 °F - 57.2 °F 82% 30.39 in - NNE 11.5 mph - N/A   Clear
4:00 AM 63 °F - 58 °F 77% 30.38 in 25 mi NNE 6.7 mph - -  
4:20 AM 64.4 °F - 57.2 °F 77% 30.39 in - NNE 12.7 mph - N/A   Clear
4:50 AM 62.6 °F - 57.2 °F 82% 30.39 in - NNE 11.5 mph - N/A   Clear
5:20 AM 60.8 °F - 57.2 °F 88% 30.39 in - NNE 10.4 mph - N/A   Clear
5:50 AM 60.8 °F - 57.2 °F 88% 30.39 in 6.2 mi NE 9.2 mph - N/A   Partly Cloudy
6:00 AM 61 °F - 57 °F 83% 30.39 in 19 mi NE 4.5 mph - -   Scattered Clouds
6:20 AM 62.6 °F - 57.2 °F 82% 30.39 in 6.2 mi NE 10.4 mph - N/A   Partly Cloudy
6:50 AM 62.6 °F - 59.0 °F 88% 30.39 in 6.2 mi NE 9.2 mph - N/A   Partly Cloudy
7:00 AM 63 °F - 58 °F 78% 30.39 in 17 mi NE 6.7 mph - -   Scattered Clouds
7:20 AM 64.4 °F - 59.0 °F 83% 30.39 in 6.2 mi NE 9.2 mph - N/A   Partly Cloudy
7:50 AM 64.4 °F - 59.0 °F 83% 30.39 in 6.2 mi NE 9.2 mph - N/A   Partly Cloudy
8:00 AM 65 °F - 58 °F 72% 30.39 in 17 mi NE 6.7 mph - -   Scattered Clouds
8:20 AM 66.2 °F - 59.0 °F 78% 30.39 in 6.2 mi NE 8.1 mph - N/A   Partly Cloudy
8:50 AM 68.0 °F - 59.0 °F 73% 30.39 in 6.2 mi NE 5.8 mph - N/A   Partly Cloudy
9:00 AM 68 °F - 59 °F 64% 30.39 in 17 mi NE 6.7 mph - -   Scattered Clouds
9:20 AM 68.0 °F - 59.0 °F 73% 30.39 in - NE 9.2 mph - N/A   Clear
9:50 AM 69.8 °F - 60.8 °F 73% 30.39 in 6.2 mi NE 8.1 mph - N/A   Partly Cloudy
10:00 AM 71 °F - 60 °F 61% 30.39 in 15 mi NE 6.7 mph - -   Scattered Clouds
10:20 AM 71.6 °F - 60.8 °F 69% 30.39 in 6.2 mi ENE 9.2 mph - N/A   Partly Cloudy
10:50 AM 71.6 °F - 60.8 °F 69% 30.39 in 6.2 mi ENE 8.1 mph - N/A   Partly Cloudy
11:20 AM 73.4 °F - 60.8 °F 65% 30.39 in 6.2 mi ENE 8.1 mph - N/A   Partly Cloudy
11:50 AM 75.2 °F - 60.8 °F 61% 30.39 in 6.2 mi ENE 9.2 mph - N/A   Partly Cloudy
12:00 PM 75 °F - 60 °F 49% 30.38 in 17 mi NNE 8.9 mph - -   Partly Cloudy
12:20 PM 75.2 °F - 59.0 °F 57% 30.39 in 6.2 mi NNE 9.2 mph - N/A   Scattered Clouds
12:50 PM 75.2 °F - 57.2 °F 53% 30.39 in 6.2 mi NNE 10.4 mph - N/A   Scattered Clouds
1:00 PM 76 °F - 59 °F 45% 30.38 in 19 mi NE 8.9 mph - -   Partly Cloudy
1:20 PM 77.0 °F - 59.0 °F 54% 30.39 in 6.2 mi NE 9.2 mph - N/A   Scattered Clouds
1:50 PM 78.8 °F - 57.2 °F 47% 30.36 in 6.2 mi ENE 9.2 mph - N/A   Scattered Clouds
2:00 PM 79 °F - 57 °F 36% 30.37 in 22 mi NE 8.9 mph - -   Partly Cloudy
2:20 PM 78.8 °F - 53.6 °F 42% 30.36 in - ENE 10.4 mph - N/A   Clear
2:50 PM 78.8 °F - 55.4 °F 44% 30.36 in - NNE 9.2 mph - N/A   Clear
3:00 PM 80 °F - 56 °F 32% 30.36 in 25 mi NNE 8.9 mph - -   Partly Cloudy
3:20 PM 80.6 °F 80.5 °F 55.4 °F 42% 30.36 in - NE 10.4 mph - N/A   Clear
3:50 PM 80.6 °F 80.5 °F 55.4 °F 42% 30.36 in - ENE 11.5 mph - N/A   Clear
4:00 PM 80 °F - 56 °F 32% 30.34 in 25 mi NNE 8.9 mph - -   Partly Cloudy
4:20 PM 78.8 °F - 53.6 °F 42% 30.36 in - NNE 10.4 mph - N/A   Clear
4:50 PM 78.8 °F - 55.4 °F 44% 30.33 in - NNE 11.5 mph - N/A   Clear
5:20 PM 80.6 °F 80.5 °F 55.4 °F 42% 30.33 in - NE 8.1 mph - N/A   Clear
5:50 PM 78.8 °F - 55.4 °F 44% 30.33 in - NNE 10.4 mph - N/A   Clear
6:00 PM 79 °F - 55 °F 34% 30.32 in 25 mi NE 6.7 mph - -   Scattered Clouds
6:20 PM 78.8 °F - 53.6 °F 42% 30.33 in - NNE 9.2 mph - N/A   Clear
6:50 PM 78.8 °F - 55.4 °F 44% 30.33 in - NE 10.4 mph - N/A   Clear
7:00 PM 80 °F - 56 °F 33% 30.31 in 25 mi NNE 8.9 mph - -   Scattered Clouds
7:20 PM 78.8 °F - 55.4 °F 44% 30.33 in - NNE 10.4 mph - N/A   Clear
7:50 PM 78.8 °F - 57.2 °F 47% 30.33 in - NNE 10.4 mph - N/A   Clear
8:00 PM 78 °F - 57 °F 37% 30.32 in 25 mi NE 6.7 mph - -   Scattered Clouds
8:20 PM 78.8 °F - 57.2 °F 47% 30.33 in - NNE 11.5 mph - N/A   Clear
8:50 PM 77.0 °F - 57.2 °F 50% 30.33 in - NNE 10.4 mph - N/A   Clear
9:00 PM 77 °F - 56 °F 39% 30.32 in 25 mi NNE 8.9 mph - -   Scattered Clouds
9:20 PM 75.2 °F - 57.2 °F 53% 30.33 in - NNE 10.4 mph - N/A   Clear
9:50 PM 73.4 °F - 57.2 °F 57% 30.33 in - NNE 10.4 mph - N/A   Clear
10:00 PM 74 °F - 58 °F 46% 30.34 in 25 mi NE 6.7 mph - -   Clear
10:20 PM 71.6 °F - 57.2 °F 60% 30.36 in - NNE 9.2 mph - N/A   Clear
10:50 PM 71.6 °F - 57.2 °F 60% 30.36 in - NNE 9.2 mph - N/A   Clear
11:20 PM 71.6 °F - 57.2 °F 60% 30.36 in - NNE 9.2 mph - N/A   Clear
11:50 PM 69.8 °F - 59.0 °F 68% 30.36 in - NNE 10.4 mph - N/A   Clear